N0DZQ Weather Reports


Display with metric or nautical units.
time (UTC)temp
F
wind
direction
speed
MPH
gust
MPH
rain 1hr
in
rain 24hr
in
rain mn
in
humidity
%
barometer
mb
20260504050558 45 0 0.0 0.0 0.00 0.00 0.00 74 1002.4
20260504050106 45 0 0.0 0.0 0.00 0.00 0.00 72 1002.5
20260504045558 45 0 0.0 0.0 0.00 0.00 0.00 75 1002.4
20260504045059 45 0 0.0 0.0 0.00 0.00 0.00 76 1002.6
20260504044601 45 0 0.0 0.0 0.00 0.00 0.00 77 1002.7
20260504044059 45 0 0.0 0.0 0.00 0.00 0.00 75 1002.8
20260504043559 45 0 0.0 0.0 0.00 0.00 0.00 76 1003.0
20260504043059 46 0 0.0 0.0 0.00 0.00 0.00 74 1002.9
20260504042559 46 0 0.0 0.0 0.00 0.00 0.00 74 1003.1
20260504042059 46 0 0.0 0.0 0.00 0.00 0.00 77 1003.2
20260504041605 46 0 0.0 0.0 0.00 0.00 0.00 74 1003.3
20260504041100 46 0 0.0 0.0 0.00 0.00 0.00 76 1003.5
20260504040556 46 0 0.0 0.0 0.00 0.00 0.00 76 1003.5
20260504035556 46 0 0.0 0.0 0.00 0.00 0.00 75 1003.7
20260504035056 47 0 0.0 0.0 0.00 0.00 0.00 75 1003.7
20260504034600 46 0 0.0 0.0 0.00 0.00 0.00 71 1003.8
20260504034059 47 0 0.0 0.0 0.00 0.00 0.00 73 1003.9
20260504033557 47 0 0.0 0.0 0.00 0.00 0.00 72 1004.0
20260504033057 47 0 0.0 0.0 0.00 0.00 0.00 72 1004.2
20260504032557 47 0 0.0 0.0 0.00 0.00 0.00 71 1004.2
20260504032058 48 0 0.0 0.0 0.00 0.00 0.00 71 1004.3
20260504031600 48 0 0.0 0.0 0.00 0.00 0.00 70 1004.4
20260504031056 49 0 0.0 0.0 0.00 0.00 0.00 68 1004.4
20260504030556 49 0 0.0 0.0 0.00 0.00 0.00 67 1004.5
20260504030100 49 0 0.0 0.0 0.00 0.00 0.00 66 1004.5
20260504025600 49 0 0.0 0.0 0.00 0.00 0.00 67 1004.6
20260504025059 50 0 0.0 0.0 0.00 0.00 0.00 69 1004.7
20260504024617 50 0 0.0 0.0 0.00 0.00 0.00 60 1004.7
20260504024059 50 0 0.0 0.0 0.00 0.00 0.00 60 1004.8
20260504023556 51 0 0.0 0.0 0.00 0.00 0.00 63 1004.8
20260504023058 52 0 0.0 0.0 0.00 0.00 0.00 63 1004.8
20260504022602 52 0 0.0 0.0 0.00 0.00 0.00 57 1004.7
20260504022056 53 0 0.0 0.0 0.00 0.00 0.00 61 1004.8
20260504021600 53 0 0.0 0.0 0.00 0.00 0.00 57 1004.7
20260504021102 53 0 0.0 0.0 0.00 0.00 0.00 57 1004.8
20260504020557 54 0 0.0 0.0 0.00 0.00 0.00 64 1004.7
20260504015557 56 0 0.0 0.0 0.00 0.00 0.00 52 1004.7
20260504015057 56 0 0.0 0.0 0.00 0.00 0.00 45 1004.7
20260504014606 57 0 0.0 1.0 0.00 0.00 0.00 45 1004.8
20260504014058 58 0 0.0 1.0 0.00 0.00 0.00 44 1004.8
20260504013556 58 0 0.0 0.0 0.00 0.00 0.00 44 1004.7
20260504013101 59 0 0.0 1.0 0.00 0.00 0.00 42 1004.8
20260504012557 59 0 0.0 1.0 0.00 0.00 0.00 41 1004.9
20260504012058 59 0 0.0 1.0 0.00 0.00 0.00 41 1004.9
20260504011559 60 0 0.0 0.0 0.00 0.00 0.00 40 1004.9
20260504011058 61 0 0.0 0.0 0.00 0.00 0.00 39 1004.9
20260504010602 61 0 0.0 0.0 0.00 0.00 0.00 39 1004.9
20260504010105 62 0 0.0 0.0 0.00 0.00 0.00 38 1004.9
20260504005559 63 0 0.0 3.0 0.00 0.00 0.00 37 1004.9
20260504005059 63 0 0.0 3.0 0.00 0.00 0.00 37 1005.0
20260504004601 64 0 0.0 1.0 0.00 0.00 0.00 36 1005.1
20260504004058 65 0 0.0 3.0 0.00 0.00 0.00 34 1004.9
20260504003557 65 0 0.0 3.0 0.00 0.00 0.00 33 1005.0
20260504003108 65 169 0.0 2.0 0.00 0.00 0.00 34 1005.1
20260504002557 66 0 1.0 2.0 0.00 0.00 0.00 33 1005.1
20260504002057 66 0 0.0 2.0 0.00 0.00 0.00 36 1005.2
20260504001557 65 285 0.0 3.0 0.00 0.00 0.00 33 1005.2
20260504001057 65 0 0.0 3.0 0.00 0.00 0.00 34 1005.2
20260504000557 66 249 0.0 4.0 0.00 0.00 0.00 35 1005.3
20260504000139 66 267 1.0 4.0 0.00 0.00 0.00 31 1005.2
20260503235557 67 0 0.0 4.0 0.00 0.00 0.00 30 1005.2
20260503235102 68 217 0.0 5.0 0.00 0.00 0.00 31 1005.2
20260503234601 68 301 0.0 5.0 0.00 0.00 0.00 30 1005.1
20260503234101 68 232 1.0 10.0 0.00 0.00 0.00 28 1005.2
20260503233558 68 295 2.0 10.0 0.00 0.00 0.00 27 1005.1
20260503233057 69 323 1.0 10.0 0.00 0.00 0.00 28 1005.1
20260503232557 69 15 2.0 9.0 0.00 0.00 0.00 27 1005.2
20260503232057 69 291 0.0 6.0 0.00 0.00 0.00 30 1005.2
20260503231600 69 290 1.0 6.0 0.00 0.00 0.00 28 1005.2
20260503231057 69 288 1.0 3.0 0.00 0.00 0.00 27 1005.4
20260503230559 70 291 1.0 9.0 0.00 0.00 0.00 28 1005.4
20260503230058 70 0 1.0 9.0 0.00 0.00 0.00 29 1005.4
20260503225556 69 217 3.0 6.0 0.00 0.00 0.00 28 1005.5
20260503225058 70 279 2.0 6.0 0.00 0.00 0.00 27 1005.5
20260503224600 70 199 2.0 8.0 0.00 0.00 0.00 27 1005.6
20260503224057 70 303 3.0 8.0 0.00 0.00 0.00 28 1005.5
20260503223600 70 0 1.0 5.0 0.00 0.00 0.00 27 1005.3
20260503223100 70 252 0.0 5.0 0.00 0.00 0.00 26 1005.5
20260503222556 70 289 1.0 6.0 0.00 0.00 0.00 28 1005.6
20260503222057 69 332 2.0 6.0 0.00 0.00 0.00 29 1005.6
20260503221600 69 245 2.0 8.0 0.00 0.00 0.00 28 1005.7
20260503221056 69 232 3.0 8.0 0.00 0.00 0.00 28 1005.7
20260503220557 70 291 1.0 8.0 0.00 0.00 0.00 29 1005.8
20260503220100 69 297 2.0 9.0 0.00 0.00 0.00 27 1005.8
20260503215559 69 314 3.0 9.0 0.00 0.00 0.00 26 1006.0
20260503215057 69 142 4.0 9.0 0.00 0.00 0.00 27 1006.0
20260503214601 69 297 3.0 7.0 0.00 0.00 0.00 27 1006.0
20260503214056 69 320 3.0 12.0 0.00 0.00 0.00 26 1005.9
20260503213557 69 281 4.0 12.0 0.00 0.00 0.00 29 1006.0
20260503213107 70 313 3.0 7.0 0.00 0.00 0.00 25 1006.1
20260503212600 70 236 1.0 7.0 0.00 0.00 0.00 28 1006.1
20260503212057 70 321 2.0 7.0 0.00 0.00 0.00 26 1006.0
20260503211619 70 22 3.0 9.0 0.00 0.00 0.00 26 1006.0
20260503211056 70 280 2.0 9.0 0.00 0.00 0.00 26 1005.9
20260503210556 70 265 4.0 9.0 0.00 0.00 0.00 27 1006.0
20260503210101 69 278 2.0 8.0 0.00 0.00 0.00 27 1006.2
20260503205557 69 294 3.0 8.0 0.00 0.00 0.00 25 1006.2
20260503205059 69 13 2.0 7.0 0.00 0.00 0.00 26 1006.2
20260503204559 69 259 3.0 7.0 0.00 0.00 0.00 27 1006.4
20260503204056 70 1 3.0 7.0 0.00 0.00 0.00 26 1006.1
20260503203556 69 0 3.0 8.0 0.00 0.00 0.00 27 1006.2
20260503203113 70 313 2.0 10.0 0.00 0.00 0.00 27 1006.3
20260503202556 69 63 3.0 10.0 0.00 0.00 0.00 28 1006.3
20260503202101 69 38 3.0 7.0 0.00 0.00 0.00 28 1006.2
20260503201558 69 309 1.0 8.0 0.00 0.00 0.00 30 1006.3
20260503201058 69 354 4.0 8.0 0.00 0.00 0.00 29 1006.2
20260503200601 69 339 4.0 8.0 0.00 0.00 0.00 28 1006.5
20260503200057 69 264 2.0 8.0 0.00 0.00 0.00 30 1006.4
20260503195557 69 340 4.0 8.0 0.00 0.00 0.00 29 1006.4
20260503195056 69 320 3.0 12.0 0.00 0.00 0.00 29 1006.4
20260503194558 69 214 4.0 12.0 0.00 0.00 0.00 30 1006.5
20260503194057 70 298 3.0 9.0 0.00 0.00 0.00 32 1006.4
20260503193558 70 356 2.0 8.0 0.00 0.00 0.00 38 1006.6
20260503193058 69 306 4.0 8.0 0.00 0.00 0.00 33 1006.6
20260503192558 69 333 3.0 8.0 0.00 0.00 0.00 35 1006.6
20260503192056 69 278 2.0 13.0 0.00 0.00 0.00 36 1006.5
20260503191609 69 355 2.0 13.0 0.00 0.00 0.00 38 1006.7
20260503191057 69 348 5.0 13.0 0.00 0.00 0.00 33 1006.7
20260503190557 69 268 3.0 8.0 0.00 0.00 0.00 34 1006.8
20260503190056 69 307 4.0 8.0 0.00 0.00 0.00 37 1006.7
20260503185558 69 281 3.0 8.0 0.00 0.00 0.00 35 1006.7
20260503185057 69 296 3.0 9.0 0.00 0.00 0.00 40 1006.8
20260503184559 69 334 4.0 9.0 0.00 0.00 0.00 40 1006.8
20260503184059 69 286 2.0 10.0 0.00 0.00 0.00 39 1006.8
20260503183556 68 4 2.0 10.0 0.00 0.00 0.00 40 1006.8
20260503183059 68 284 3.0 9.0 0.00 0.00 0.00 43 1006.9
20260503182556 68 7 4.0 9.0 0.00 0.00 0.00 38 1007.0
20260503182058 68 300 2.0 5.0 0.00 0.00 0.00 37 1007.0
20260503181605 68 8 1.0 8.0 0.00 0.00 0.00 38 1007.1
20260503181057 67 330 3.0 8.0 0.00 0.00 0.00 42 1007.2
20260503180558 67 291 4.0 14.0 0.00 0.00 0.00 37 1007.2
20260503180112 67 224 4.0 14.0 0.00 0.00 0.00 36 1007.1
20260503175559 67 320 3.0 9.0 0.00 0.00 0.00 38 1007.3
20260503175056 67 354 3.0 9.0 0.00 0.00 0.00 39 1007.2
20260503174600 67 319 4.0 9.0 0.00 0.00 0.00 40 1007.2
20260503174059 67 320 4.0 9.0 0.00 0.00 0.00 39 1007.2
20260503173558 67 19 4.0 10.0 0.00 0.00 0.00 43 1007.3
20260503173102 67 43 3.0 10.0 0.00 0.00 0.00 43 1007.2
20260503172600 67 315 4.0 13.0 0.00 0.00 0.00 41 1007.4
20260503172057 67 295 3.0 13.0 0.00 0.00 0.00 43 1007.4
20260503171600 67 312 4.0 13.0 0.00 0.00 0.00 43 1007.4
20260503171057 67 303 2.0 11.0 0.00 0.00 0.00 44 1007.4
20260503170557 67 321 2.0 11.0 0.00 0.00 0.00 46 1007.3
20260503150556 63 309 3.0 8.0 0.00 0.00 0.00 50 1007.1
20260503150103 62 346 2.0 8.0 0.00 0.00 0.00 50 1007.2
20260503131056 57 0 1.0 5.0 0.00 0.00 0.00 55 1006.5
20260503130559 56 262 1.0 5.0 0.00 0.00 0.00 55 1006.4
20260503130104 56 285 1.0 3.0 0.00 0.00 0.00 54 1006.4
20260503110558 48 0 0.0 0.0 0.00 0.00 0.00 64 1005.6
20260503081557 52 0 0.0 1.0 0.00 0.00 0.00 67 1006.0
20260503081100 52 0 0.0 1.0 0.00 0.00 0.00 66 1006.1
20260503080600 52 0 0.0 1.0 0.00 0.00 0.00 66 1006.1
20260503072557 52 0 0.0 1.0 0.00 0.00 0.00 65 1006.5
20260503072057 52 0 0.0 1.0 0.00 0.00 0.00 64 1006.6
20260503071604 52 0 0.0 1.0 0.00 0.00 0.00 65 1006.8
20260503071056 52 33 0.0 0.0 0.00 0.00 0.00 64 1006.9
20260503070556 52 0 0.0 1.0 0.00 0.00 0.00 64 1007.0
20260503070105 52 0 0.0 3.0 0.00 0.00 0.00 64 1007.1
20260503060111 51 0 0.0 0.0 0.00 0.00 0.00 63 1008.4
20260503055100 51 0 0.0 0.0 0.00 0.00 0.00 64 1008.5
20260503054611 51 0 0.0 0.0 0.00 0.00 0.00 65 1008.4
20260503054103 51 0 0.0 0.0 0.00 0.00 0.00 64 1008.4
20260503053600 51 0 0.0 0.0 0.00 0.00 0.00 64 1008.4
20260503053059 51 0 0.0 0.0 0.00 0.00 0.00 63 1008.4
20260503052600 52 0 0.0 0.0 0.00 0.00 0.00 63 1008.4
20260503052100 52 0 0.0 0.0 0.00 0.00 0.00 63 1008.6